Starlink 4650

decayed
NORAD ID: 53611 Int'l Des: 2022-104 Owner: SPXS Country: US Constellation: starlink
LEOCIRCULAR
Gruppe

Über Starlink 4650

Beschreibung wird geladen...

Höhenverlauf

Altitude vs Time

uPlot chart will show altitude changes over time

Zweizeiliger Elementsatz

1 53611U 22104Z 25227.26161906 .16392320 13267-4 32393-3 0 9996
2 53611 53.1516 339.8795 0055899 357.4792 82.0473 16.39243652165317
Epoch: 15. Aug. 2025 • Age: 5570 hours

Aktueller Status

Position data unavailable
Startdatum 28. Aug. 2022
Alter 3.6 years
Verglühungsdatum 15. Aug. 2025
Typ internet

Technische Details

Klassifizierung Payload
Masse 300.00 kg
Trockenmasse 290.00 kg
Gesamtmasse 300.00 kg
Länge 0.20 m
Durchmesser 2.80 m
Spannweite 9.00 m
Form Box + pan
Hersteller SPXS
Bus-Typ Starlink
Phasenstatus Reentered
Besitzer/Staat SPXS/US

Große Konstellationen

Loading constellations...